Weather History for Flint, MI

Change the Weather History Date:

Saturday, July 20, 2013

  Actual Average Record
Temperature  
Mean Temperature 77 °F 71 °F  
Max Temperature 88 °F 82 °F 102 °F (1930)
Min Temperature 66 °F 59 °F 41 °F (1965)
Degree Days  
Heating Degree Days 0 0  
Month to date heating degree days 0 10  
Since 1 June heating degree days 41 76  
Since 1 July heating degree days 0 10  
Cooling Degree Days 12 6  
Month to date cooling degree days 229 120  
Year to date cooling degree days 467 264  
Since 1 June cooling degree days 388 232  
Growing Degree Days 29 (Base 50)    
Moisture  
Dew Point 62 °F    
Average Humidity 57    
Maximum Humidity 79    
Minimum Humidity 34    
Precipitation  
Precipitation 0.00 in 0.11 in 2.28 in (1952)
Month to date precipitation 0.33 2.04  
Year to date precipitation 21.60 16.10  
Snow  
Snow 0.00 in 0.00 in 0.00 in ()
Month to date snowfall 0.0 0.0  
Since 1 June snowfall 0.0 0.0  
Since 1 July snowfall 0.0 0.0  
Snow Depth 0.00 in    
Sea Level Pressure  
Sea Level Pressure 29.82 in    
Wind  
Wind Speed 7 mph (NNW)    
Max Wind Speed 21 mph    
Max Gust Speed 22 mph    
Visibility 10 miles    
Events Thunderstorm    
T = Trace of Precipitation, MM = Missing Value Source: NWS Daily Summary

Daily Weather History Graph

Daily Weather History Graph

Search for Another Location

Airport:

Trip Planner

Search our weather history database for the weather conditions in past years. The results will help you decide how hot, cold, wet, or windy it might be!

Date:

Astronomy

Jul. 20, 2013 Rise Set
Actual Time 6:14 AM EDT 9:07 PM EDT
Civil Twilight 5:40 AM EDT 9:41 PM EDT
Nautical Twilight 4:58 AM EDT 10:23 PM EDT
Astronomical Twilight 4:08 AM EDT 11:13 PM EDT
Moon 7:10 PM EDT (7/20) 3:53 AM EDT (7/20)
Length of Visible Light 16h 00m
Length of Day
14h 53m
Waxing Gibbous, 93% of the Moon is Illuminated
Jul 20
Waxing Gibbous
Jul 22
Full
Jul 29
Last Quarter
Aug 6
New
Aug 14
First Quarter

Hourly Weather History & Observations

Time (EDT) Temp. Heat Index Dew Point Humidity Pressure Visibility Wind Dir Wind Speed Gust Speed Precip Events Conditions
12:53 AM 82.9 °F 85.8 °F 68.0 °F 60% 29.71 in 10.0 mi West 9.2 mph 19.6 mph N/A Thunderstorm Scattered Clouds
1:26 AM 80.6 °F 82.3 °F 64.4 °F 58% 29.76 in 10.0 mi NNW 15.0 mph 20.7 mph N/A   Overcast
1:53 AM 78.1 °F - 66.0 °F 66% 29.75 in 10.0 mi NNW 8.1 mph - N/A   Overcast
2:05 AM 77.0 °F - 66.2 °F 69% 29.78 in 10.0 mi NW 9.2 mph - N/A Thunderstorm Overcast
2:25 AM 77.0 °F - 66.2 °F 69% 29.77 in 10.0 mi North 3.5 mph - N/A   Mostly Cloudy
2:53 AM 75.9 °F - 66.0 °F 71% 29.75 in 10.0 mi NW 4.6 mph - N/A   Overcast
3:49 AM 75.2 °F - 66.2 °F 73% 29.77 in 10.0 mi NNE 5.8 mph - N/A   Overcast
3:53 AM 75.0 °F - 66.9 °F 76% 29.75 in 10.0 mi NE 8.1 mph - N/A   Overcast
4:53 AM 73.9 °F - 66.0 °F 76% 29.75 in 10.0 mi NE 9.2 mph - N/A   Overcast
5:53 AM 73.0 °F - 62.1 °F 68% 29.78 in 10.0 mi ENE 9.2 mph - N/A   Mostly Cloudy
6:53 AM 72.0 °F - 63.0 °F 73% 29.81 in 10.0 mi ENE 6.9 mph - N/A   Mostly Cloudy
7:00 AM 73.4 °F - 62.6 °F 69% 29.83 in 10.0 mi ENE 6.9 mph - N/A   Partly Cloudy
7:53 AM 73.9 °F - 64.0 °F 71% 29.83 in 10.0 mi ESE 4.6 mph - N/A   Clear
8:53 AM 75.9 °F - 62.1 °F 62% 29.85 in 10.0 mi Variable 3.5 mph - N/A   Scattered Clouds
9:53 AM 79.0 °F - 60.1 °F 52% 29.84 in 10.0 mi Calm Calm - N/A   Clear
10:53 AM 82.0 °F 82.1 °F 59.0 °F 45% 29.85 in 10.0 mi North 3.5 mph - N/A   Clear
11:53 AM 84.0 °F 83.3 °F 57.0 °F 40% 29.85 in 10.0 mi NW 5.8 mph - N/A   Partly Cloudy
12:53 PM 84.0 °F 82.9 °F 55.0 °F 37% 29.84 in 10.0 mi WNW 5.8 mph - N/A   Clear
1:53 PM 84.9 °F 83.6 °F 55.0 °F 36% 29.85 in 10.0 mi NW 9.2 mph - N/A   Clear
2:53 PM 86.0 °F 84.5 °F 55.0 °F 35% 29.85 in 10.0 mi NW 6.9 mph 17.3 mph N/A   Clear
3:53 PM 87.1 °F 85.3 °F 55.0 °F 33% 29.83 in 10.0 mi NW 13.8 mph 21.9 mph N/A   Partly Cloudy
4:53 PM 82.0 °F 81.7 °F 57.0 °F 42% 29.85 in 10.0 mi WNW 11.5 mph - N/A   Overcast
5:53 PM 82.0 °F 83.0 °F 62.1 °F 51% 29.86 in 10.0 mi North 12.7 mph 18.4 mph N/A   Mostly Cloudy
6:53 PM 79.0 °F - 61.0 °F 54% 29.86 in 10.0 mi NNW 8.1 mph - N/A   Mostly Cloudy
7:53 PM 78.1 °F - 62.1 °F 58% 29.88 in 10.0 mi North 5.8 mph - N/A   Overcast
8:53 PM 75.9 °F - 61.0 °F 60% 29.89 in 10.0 mi NNW 4.6 mph - N/A   Clear
9:53 PM 73.0 °F - 61.0 °F 66% 29.90 in 10.0 mi WNW 3.5 mph - N/A   Clear
10:53 PM 70.0 °F - 63.0 °F 78% 29.92 in 10.0 mi Calm Calm - N/A   Clear
11:53 PM 68.0 °F - 59.0 °F 73% 29.95 in 10.0 mi East 13.8 mph - N/A   Clear